South Haven, MI

9:36 PM EDT on September 29, 2016 (GMT -0400)
South Haven

Weather History for KLWA - August, 2013

Change the Weather History Date:

Sunday, August 25, 2013

  Actual Average (KBIV) Record (KBIV)
Temperature  
Mean Temperature 72 °F 70 °F  
Max Temperature 84 °F 80 °F 95 °F (1959)
Min Temperature 60 °F 60 °F 42 °F (1977)
Degree Days  
Heating Degree Days 0 0  
Month to date heating degree days 0  
Since 1 June heating degree days 54  
Since 1 July heating degree days 6  
Cooling Degree Days 7 5  
Month to date cooling degree days 164  
Year to date cooling degree days 587  
Since 1 June cooling degree days 545  
Growing Degree Days 22 (Base 50)    
Moisture  
Dew Point 60 °F    
Average Humidity 67    
Maximum Humidity 94    
Minimum Humidity 43    
Precipitation  
Precipitation 0.00 in 0.13 in 2.44 in (1982)
Month to date precipitation 2.85  
Year to date precipitation 22.49  
Sea Level Pressure  
Sea Level Pressure 30.23 in    
Wind  
Wind Speed 3 mph (SSW)    
Max Wind Speed 15 mph    
Max Gust Speed 20 mph    
Visibility 10 miles    
Events      
T = Trace of Precipitation, MM = Missing Value Source: NWS Daily Summary

Daily Weather History Graph

Daily Weather History Graph

Search for Another Location

Airport or City:

Trip Planner

Search our weather history database for the weather conditions in past years. The results will help you decide how hot, cold, wet, or windy it might be!

Date:

Astronomy

Aug. 25, 2013 Rise Set
Actual Time 7:03 AM EDT 8:30 PM EDT
Civil Twilight 6:33 AM EDT 8:59 PM EDT
Nautical Twilight 5:58 AM EDT 9:34 PM EDT
Astronomical Twilight 5:20 AM EDT 10:12 PM EDT
Moon 10:53 PM EDT (8/25) 12:11 PM EDT (8/25)
Length of Visible Light 14h 25m
Length of Day
13h 27m
Waning Gibbous, 76% of the Moon is Illuminated
Aug 25
Waning Gibbous
Aug 28
Last Quarter
Sep 5
New
Sep 12
First Quarter
Sep 19
Full

Hourly Weather History & Observations

Time (EDT) Temp. Heat Index Dew Point Humidity Pressure Visibility Wind Dir Wind Speed Gust Speed Precip Events Conditions
12:14 AM 60.8 °F - 59.0 °F 94% 30.25 in 10.0 mi Calm Calm - N/A   Clear
12:35 AM 61.3 °F - 59.0 °F 92% 30.25 in 10.0 mi Calm Calm - N/A   Clear
12:55 AM 60.8 °F - 59.0 °F 94% 30.25 in 10.0 mi Calm Calm - N/A   Clear
1:14 AM 61.2 °F - 58.6 °F 91% 30.25 in 10.0 mi Calm Calm - N/A   Clear
1:35 AM 61.7 °F - 58.6 °F 90% 30.25 in 10.0 mi Calm Calm - N/A   Clear
1:55 AM 61.7 °F - 58.6 °F 90% 30.25 in 10.0 mi Calm Calm - N/A   Clear
2:14 AM 61.2 °F - 58.1 °F 90% 30.25 in 10.0 mi Calm Calm - N/A   Clear
2:35 AM 61.7 °F - 57.2 °F 85% 30.25 in 10.0 mi Calm Calm - N/A   Clear
2:55 AM 63.0 °F - 57.2 °F 81% 30.25 in 10.0 mi SE 4.6 mph - N/A   Clear
3:14 AM 61.5 °F - 56.8 °F 85% 30.25 in 10.0 mi Calm Calm - N/A   Clear
3:35 AM 61.7 °F - 56.7 °F 84% 30.25 in 10.0 mi SE 3.5 mph - N/A   Clear
3:55 AM 62.1 °F - 56.3 °F 81% 30.25 in 10.0 mi Calm Calm - N/A   Clear
4:15 AM 61.9 °F - 56.3 °F 82% 30.25 in 10.0 mi Calm Calm - N/A   Clear
4:35 AM 62.8 °F - 56.5 °F 80% 30.25 in 10.0 mi SE 3.5 mph - N/A   Clear
4:55 AM 62.6 °F - 56.8 °F 81% 30.25 in 10.0 mi Calm Calm - N/A   Clear
5:15 AM 62.4 °F - 57.0 °F 82% 30.25 in 10.0 mi Calm Calm - N/A   Clear
5:35 AM 61.7 °F - 56.8 °F 84% 30.25 in 10.0 mi Calm Calm - N/A   Clear
5:55 AM 61.2 °F - 57.2 °F 87% 30.25 in 10.0 mi Calm Calm - N/A   Clear
6:15 AM 61.3 °F - 57.2 °F 86% 30.25 in 10.0 mi Calm Calm - N/A   Clear
6:35 AM 61.2 °F - 57.2 °F 87% 30.25 in 10.0 mi Calm Calm - N/A   Clear
6:54 AM 61.0 °F - 57.6 °F 88% 30.25 in 10.0 mi South 4.6 mph - N/A   Clear
7:15 AM 60.8 °F - 57.6 °F 89% 30.26 in 10.0 mi Calm Calm - N/A   Clear
7:35 AM 61.0 °F - 57.9 °F 90% 30.26 in 10.0 mi South 3.5 mph - N/A   Clear
7:54 AM 61.7 °F - 58.3 °F 89% 30.26 in 10.0 mi Calm Calm - N/A   Clear
8:15 AM 63.1 °F - 58.6 °F 85% 30.27 in 10.0 mi Calm Calm - N/A   Clear
8:35 AM 64.6 °F - 59.4 °F 83% 30.27 in 10.0 mi South 3.5 mph - N/A   Clear
8:54 AM 66.2 °F - 60.3 °F 81% 30.28 in 10.0 mi South 4.6 mph - N/A   Clear
9:15 AM 68.5 °F - 60.8 °F 76% 30.28 in 10.0 mi Calm Calm - N/A   Clear
9:35 AM 71.2 °F - 60.6 °F 69% 30.28 in 10.0 mi Calm Calm - N/A   Clear
9:54 AM 72.9 °F - 61.2 °F 67% 30.28 in 10.0 mi South 5.8 mph - N/A   Clear
10:15 AM 74.5 °F - 60.4 °F 61% 30.28 in 10.0 mi SSW 5.8 mph - N/A   Clear
10:35 AM 76.3 °F - 61.2 °F 59% 30.28 in 10.0 mi SW 5.8 mph - N/A   Clear
10:55 AM 77.7 °F - 59.7 °F 54% 30.27 in 10.0 mi SSW 9.2 mph - N/A   Clear
11:15 AM 78.4 °F - 58.1 °F 50% 30.27 in 10.0 mi SW 10.4 mph 16.1 mph N/A   Clear
11:35 AM 79.7 °F - 58.5 °F 48% 30.27 in 10.0 mi SW 9.2 mph - N/A   Clear
11:55 AM 80.2 °F 80.8 °F 58.6 °F 48% 30.26 in 10.0 mi SW 11.5 mph - N/A   Clear
12:15 PM 81.0 °F 81.3 °F 59.2 °F 47% 30.26 in 10.0 mi SW 8.1 mph 17.3 mph N/A   Clear
12:35 PM 82.0 °F 82.4 °F 59.9 °F 47% 30.25 in 10.0 mi SW 9.2 mph 17.3 mph N/A   Clear
12:55 PM 82.9 °F 82.7 °F 58.5 °F 43% 30.25 in 10.0 mi SW 12.7 mph - N/A   Clear
1:15 PM 82.2 °F 82.1 °F 58.1 °F 44% 30.24 in 10.0 mi WSW 12.7 mph 17.3 mph N/A   Clear
1:35 PM 81.7 °F 81.8 °F 58.5 °F 45% 30.24 in 10.0 mi SW 10.4 mph 19.6 mph N/A   Mostly Cloudy
1:55 PM 81.0 °F 81.2 °F 58.6 °F 46% 30.24 in 10.0 mi SW 10.4 mph - N/A   Overcast
2:15 PM 81.5 °F 81.6 °F 58.5 °F 45% 30.23 in 10.0 mi SW 11.5 mph 17.3 mph N/A   Mostly Cloudy
2:35 PM 83.3 °F 83.1 °F 58.5 °F 43% 30.23 in 10.0 mi SW 9.2 mph 16.1 mph N/A   Mostly Cloudy
2:55 PM 82.4 °F 82.3 °F 58.5 °F 44% 30.23 in 10.0 mi SW 9.2 mph - N/A   Mostly Cloudy
3:14 PM 83.7 °F 83.4 °F 59.0 °F 43% 30.22 in 10.0 mi SW 11.5 mph 18.4 mph N/A   Scattered Clouds
3:35 PM 84.0 °F 83.8 °F 59.5 °F 43% 30.21 in 10.0 mi SSW 15.0 mph 19.6 mph N/A   Clear
3:55 PM 84.2 °F 84.0 °F 59.7 °F 43% 30.20 in 10.0 mi SW 10.4 mph - N/A   Clear
4:15 PM 84.4 °F 84.4 °F 60.3 °F 44% 30.19 in 10.0 mi SW 11.5 mph - N/A   Clear
4:35 PM 84.7 °F 85.0 °F 61.5 °F 45% 30.20 in 10.0 mi WSW 11.5 mph - N/A   Clear
4:54 PM 84.7 °F 85.4 °F 62.4 °F 47% 30.19 in 10.0 mi WSW 10.4 mph 16.1 mph N/A   Clear
5:15 PM 84.2 °F 84.8 °F 62.2 °F 47% 30.18 in 10.0 mi SW 9.2 mph 17.3 mph N/A   Clear
5:35 PM 84.2 °F 84.8 °F 62.1 °F 47% 30.18 in 10.0 mi SW 9.2 mph 16.1 mph N/A   Clear
5:54 PM 83.8 °F 84.7 °F 62.6 °F 49% 30.17 in 10.0 mi SW 9.2 mph - N/A   Clear
6:15 PM 83.7 °F 84.1 °F 61.7 °F 47% 30.17 in 10.0 mi SW 8.1 mph - N/A   Clear
6:35 PM 83.3 °F 83.9 °F 61.9 °F 48% 30.17 in 10.0 mi SW 9.2 mph - N/A   Clear
6:54 PM 83.1 °F 83.9 °F 62.4 °F 49% 30.16 in 10.0 mi SW 6.9 mph - N/A   Clear
7:15 PM 82.4 °F 83.2 °F 62.2 °F 50% 30.16 in 10.0 mi SW 6.9 mph - N/A   Clear
7:35 PM 81.7 °F 82.9 °F 63.1 °F 53% 30.16 in 10.0 mi SW 3.5 mph - N/A   Clear
7:54 PM 80.4 °F 82.0 °F 64.0 °F 57% 30.15 in 10.0 mi Calm Calm - N/A   Clear
8:15 PM 78.3 °F - 66.0 °F 66% 30.16 in 10.0 mi Calm Calm - N/A   Clear
8:35 PM 75.9 °F - 67.5 °F 75% 30.16 in 10.0 mi Calm Calm - N/A   Clear
8:54 PM 75.7 °F - 66.4 °F 73% 30.16 in 10.0 mi South 3.5 mph - N/A   Clear
9:15 PM 76.1 °F - 65.3 °F 69% 30.17 in 10.0 mi South 4.6 mph - N/A   Clear
9:35 PM 76.3 °F - 64.8 °F 67% 30.17 in 10.0 mi SSW 3.5 mph - N/A   Clear
9:54 PM 75.4 °F - 64.8 °F 69% 30.17 in 10.0 mi SSW 3.5 mph - N/A   Clear
10:15 PM 74.8 °F - 64.8 °F 71% 30.18 in 10.0 mi SSW 3.5 mph - N/A   Clear
10:35 PM 74.5 °F - 64.4 °F 71% 30.18 in 10.0 mi SSW 4.6 mph - N/A   Clear
10:55 PM 74.7 °F - 64.2 °F 70% 30.18 in 10.0 mi SSW 4.6 mph - N/A   Clear
11:15 PM 74.3 °F - 63.9 °F 70% 30.18 in 10.0 mi SSW 5.8 mph - N/A   Clear
11:35 PM 73.6 °F - 63.7 °F 71% 30.18 in 10.0 mi SSW 4.6 mph - N/A   Clear
11:55 PM 73.6 °F - 63.5 °F 71% 30.18 in 10.0 mi South 4.6 mph - N/A   Clear